Date,TemperatureHighF,TemperatureAvgF,TemperatureLowF,DewpointHighF,DewpointAvgF,DewpointLowF,HumidityHigh,HumidityAvg,HumidityLow,PressureMaxIn,PressureMinIn,WindSpeedMaxMPH,WindSpeedAvgMPH,GustSpeedMaxMPH,PrecipitationSumIn
2013-3-1,53.9,41.9,32.6,40.7,35.8,30.5,96,81,54,30.50,30.39,3,0,5,0.00
2013-3-2,57.8,45.3,32.0,45.3,39.9,30.2,96,82,59,30.39,30.20,8,1,10,0.00
2013-3-3,47.4,44.9,42.2,43.8,41.1,37.1,94,87,78,30.21,30.04,3,0,5,0.00
2013-3-4,48.5,42.2,34.9,38.6,36.0,32.2,92,79,63,30.04,29.69,5,0,8,0.00
2013-3-5,52.8,39.7,30.5,39.4,34.0,29.0,96,82,54,29.69,29.58,2,0,5,0.00
2013-3-6,43.2,40.9,37.7,38.9,37.1,34.1,92,87,81,29.66,29.58,7,1,12,0.02
2013-3-7,45.4,42.7,40.9,42.9,40.4,38.4,95,91,87,29.59,29.48,12,2,16,0.13
2013-3-8,42.2,41.2,40.3,39.3,38.1,37.3,91,89,87,29.65,29.49,8,3,18,0.02
2013-3-9,40.4,39.0,36.8,37.8,35.5,29.4,93,87,74,29.86,29.65,9,2,14,0.06
2013-3-10,36.9,33.1,27.9,30.9,27.6,23.4,88,80,72,30.08,29.86,4,1,15,0.00
2013-3-11,40.6,31.3,24.4,26.6,21.9,19.4,85,69,51,30.11,30.07,5,1,11,0.01
2013-3-12,48.6,35.5,23.0,34.6,27.2,19.6,92,73,50,30.10,29.86,7,1,11,0.00
2013-3-13,50.2,37.2,27.9,31.8,26.9,22.2,92,69,39,29.95,29.84,4,0,7,0.00
2013-3-14,45.3,37.5,27.6,42.0,34.5,24.5,93,89,82,29.95,29.53,8,1,10,0.05
2013-3-15,47.7,42.3,35.7,42.4,38.8,33.8,94,88,76,29.53,29.32,11,2,13,0.11
2013-3-16,41.5,37.4,34.2,38.3,35.5,32.9,96,93,85,29.33,29.17,7,0,9,0.03
2013-3-17,47.3,38.7,34.7,43.5,36.6,33.1,97,92,80,29.21,29.08,4,0,9,0.11
2013-3-18,41.6,38.5,34.4,39.3,35.2,30.3,96,88,81,29.50,29.20,10,2,14,0.06
2013-3-19,40.0,36.8,34.8,34.4,32.5,30.3,94,85,77,29.59,29.48,9,2,15,0.05
2013-3-20,43.1,37.1,32.4,35.8,32.6,29.1,94,84,66,29.99,29.60,7,1,10,0.00
2013-3-21,44.6,36.1,29.0,32.6,29.0,26.6,94,77,52,30.03,29.91,13,2,17,0.01
2013-3-22,38.0,35.7,33.3,33.3,31.4,28.7,94,85,72,29.94,29.85,15,3,21,0.07
2013-3-23,35.6,34.7,33.5,31.7,29.3,25.8,92,81,70,30.11,29.93,9,3,16,0.07
2013-3-24,39.8,36.0,34.0,28.1,26.6,24.6,75,69,58,30.23,30.11,13,3,23,0.02
2013-3-25,39.7,36.2,33.2,29.5,27.9,26.3,79,72,64,30.24,30.20,11,2,13,0.00
2013-3-26,41.1,35.3,28.4,32.2,28.7,24.2,89,77,61,30.21,30.12,7,1,10,0.01
2013-3-27,45.2,34.6,27.9,34.3,29.2,24.1,91,81,53,30.12,30.04,8,1,11,0.01
2013-3-28,44.7,36.4,30.3,33.6,29.0,25.7,92,76,50,30.06,29.99,9,1,13,0.04
2013-3-29,46.4,36.4,28.8,34.6,29.0,24.2,93,76,46,29.99,29.88,6,1,10,0.00
2013-3-30,44.7,36.2,26.3,31.7,27.6,23.7,93,73,48,29.96,29.91,5,0,7,0.00
2013-3-31,44.2,37.5,30.3,29.4,26.4,23.6,86,66,46,29.96,29.92,8,1,9,0.00